www.pogodaiklimat.ru

Погода и климат >> Архив погоды >> Мексика >> Acapulco


АРХИВ ПОГОДЫ в Acapulco

Время (UTC), дата Ветер
(напр.,м/с)
 
Видим.   Явления Облачность Т
(С)
Тd
(С)
f
(%)
Тe
(С)
Тes
(С)
Комфортность P
(гПа)
Po
(гПа)
Тmin
(С)
Tmax
(С)
R
(мм)
R24
(мм)
S
(см)
09 19.06 СЗ 3 8000 м в посл. час гроза {дождь} 10/10 800 м
[Frnb]
+23.2 +22.0 93 +32 +32 очень
душно
1009.3 1008.9 96
15 19.06 З 2 20 км 8/5 900 м
[Sc diur, vesp As op]
+26.1 +25.3 95 +38 +40 очень
душно
1008.6 1008.2
18 19.06 СЗ 2 20 км 9/8 900 м
[Sc diur, vesp As op]
+29.0 +25.5 81 +43 +45 опасность
перегрева
1009.3 1008.9 +21.6 +29.6
21 19.06 З 2 20 км 8/5 900 м
[Cu med, cong As op]
+31.5 +24.9 68 +45 +49 опасность
перегрева
1008.1 1007.6
00 20.06 СЗ 1 10 км 4/3 600 м
[Cu hum Ac trans]
+31.0 +25.4 72 +45 +46 опасность
перегрева
1007.8 1007.4 +21.6 +33.0
03 20.06 З 2 10 км 4/3 900 м
[Cu hum Ac trans]
+27.8 +24.1 80 +39 +39 очень
душно
1010.0 1009.5
06 20.06 Ю 2 10 км 4/3 600 м
[Cu hum Ac trans]
+26.0 +24.6 92 +37 +37 очень
душно
1011.8 1011.3 +21.6 +33.0
09 20.06 Ю 1 10 км туман 3/3 840 м
[Cu med, cong]
+25.2 +23.6 91 +34 +34 очень
душно
1011.6 1011.0
12 20.06 ЮЗ 1 10 км 3/3 960 м
[Cu med, cong]
+24.7 +23.1 91 +33 +33 очень
душно
1011.4 1011.0 +22.5 +33.0
15 20.06 ЮЗ 1 20 км 1/0
[Cs]
+30.1 +25.2 75 +44 +53 опасность
перегрева
1010.0 1009.6
18 20.06 З 2 20 км 3/1 900 м
[Cu hum Ac trans]
+33.1 +25.4 64 +48 +64 опасность
перегрева
1010.4 1010.1 +22.5 +33.9
21 20.06 ЮВ 3 20 км 4/1 900 м
[Cu hum Ac trans Cs]
+33.3 +25.4 63 +48 +57 опасность
перегрева
1008.1 1007.7
00 21.06 ЮЗ 3 20 км 4/1 600 м
[Cu hum Ac trans Cs]
+30.9 +26.5 77 +47 +48 опасность
перегрева
1007.4 1007.1 +22.5 +34.2
03 21.06 З 2 10 км 9/5 840 м
[Cu Sc Ac trans]
+29.0 +25.9 83 +43 +43 опасность
перегрева
1009.7 1009.4
06 21.06 З 1 10 км 6/3 600 м
[Cu med, cong Cs]
+27.8 +26.4 92 +42 +42 опасность
перегрева
1010.9 1010.6 +22.5 +34.2
09 21.06 СВ 1 10 км 6/4 840 м
[Cu hum Cs]
+27.0 +26.0 94 +40 +40 очень
душно
1009.5 1009.1
12 21.06 СЗ 1 15 км 5/3 870 м
[Cu hum Ac trans]
+26.2 +25.4 95 +38 +38 очень
душно
1009.0 1008.6 +25.0 +34.2
15 21.06 СЗ 1 20 км 4/1 870 м
[Cu med, cong Ac lent]
+29.9 +26.3 81 +46 +52 опасность
перегрева
1010.6 1010.2
18 21.06 ЮЗ 2 20 км 3/3 870 м
[Cu med, cong]
+32.7 +26.2 69 +49 +64 опасность
перегрева
1010.2 1009.8 +22.5 +34.1
21 21.06 ЮЗ 3 20 км 4/4 800 м
[Cb cap]
+33.3 +26.3 67 +50 +57 опасность
перегрева
1008.6 1008.2
00 22.06 ЮЗ 3 20 км 6/6 600 м
[Sc diur, vesp As op]
+31.5 +25.5 71 +46 +47 опасность
перегрева
1008.3 1007.9 +25.0 +34.1
03 22.06 Ю 2 10 км 5/5 840 м
[Sc diur, vesp]
+29.6 +25.2 77 +43 +43 опасность
перегрева
1009.7 1009.3
06 22.06 З 1 10 км 8/8 600 м
[Sc diur, vesp]
+28.6 +26.1 86 +43 +43 опасность
перегрева
1011.6 1011.1 +25.0 +34.1
12 22.06 ЮЗ 1 16 км {морось} 8/5 600 м
[Sc diur, vesp Ac lent]
+25.3 +23.9 92 +35 +35 очень
душно
1009.5 1009.0 1
18 22.06 З 2 20 км 6/3 900 м
[Cu med, cong Ac trans]
+32.2 +25.8 69 +47 +58 опасность
перегрева
1010.2 1009.7 +24.3 +33.4
21 22.06 З 3 20 км 5/1 900 м
[Cu med, cong Ac trans]
+32.6 +25.6 67 +48 +56 опасность
перегрева
1008.6 1008.1
00 23.06 ЮЗ 3 20 км 6/6 600 м
[Cu Sc]
+31.6 +26.0 72 +47 +48 опасность
перегрева
1008.6 1008.1 +24.3 +34.0
03 23.06 ЮЗ 1 10 км 5/5 800 м
[Cu Sc]
+29.2 +25.9 82 +44 +44 опасность
перегрева
1009.5 1009.0
06 23.06 З 1 10 км 6/6 600 м
[Cu Sc]
+29.2 +25.7 81 +43 +43 опасность
перегрева
1011.1 1010.7 +24.3 +34.0
09 23.06 С 2 10 км слабый дождь {морось} 10/10 700 м
[Cu Sc]
+25.8 +24.7 94 +37 +37 очень
душно
1009.9 1009.5
12 23.06 С 2 15 км слабый дождь {морось} 10/10 600 м
[Cu Sc]
+25.0 +23.8 93 +34 +34 очень
душно
1009.9 1009.5 1
15 23.06 Ю 1 19 км слабая морось 10/10 800 м
[Cu Sc]
+26.7 +25.1 91 +38 +38 очень
душно
1010.9 1010.4 1
18 23.06 ЮЗ 3 20 км {морось} 9/9 600 м
[Cu med, cong]
+30.2 +26.2 79 +46 +47 опасность
перегрева
1010.2 1009.8 1
21 23.06 ЮЗ 3 20 км 3/1 840 м
[Cu med, cong Cs]
+33.3 +26.7 68 +50 +61 опасность
перегрева
1007.9 1007.4
00 24.06 З 2 20 км 1/1 600 м
[Cu med, cong]
+31.7 +24.8 67 +45 +46 опасность
перегрева
1006.2 1005.8 +23.8 +33.9
03 24.06 ЮЗ 2 10 км 8/5 840 м
[Cu med, cong Cs]
+29.4 +25.2 78 +43 +43 опасность
перегрева
1009.3 1008.9
06 24.06 ЮВ 4 10 км 10/10 600 м
[Cu Sc]
+27.0 +24.4 86 +38 +38 очень
душно
1012.0 1011.7 +23.8 +33.9
12 24.06 З 1 15 км в посл. час морось 10/9 600 м
[Cu Sc Cs]
+24.3 +23.6 96 +33 +33 очень
душно
1010.4 1010.0 5
15 24.06 З 2 20 км 6/6 660 м
[Cu Sc]
+25.0 +28.9 100 +36 +39 очень
душно
1011.6 1011.1
21 24.06 Ю 2 20 км 8/6 600 м
[Cu Sc Cs]
+33.2 +24.5 60 +46 +51 опасность
перегрева
1010.4 1009.8
06 25.06 ЮЗ 2 8000 м слабая морось {дождь} 8/8 600 м
[Cu Sc]
+25.6 +23.6 89 +35 +35 очень
душно
1012.5 1012.0 10
09 25.06 З 2 8000 м 9/9 700 м
[Cu Sc]
+24.2 +23.2 94 +32 +32 очень
душно
1012.5 1012.0
12 25.06 ЮЗ 2 8000 м 9/9 800 м
[Cu Sc]
+23.8 +22.9 95 +32 +32 очень
душно
1012.3 1011.9 +23.0 +34.0
15 25.06 ЮВ 2 19 км морось {дождь} 10/5 800 м
[Sc As op]
+24.6 +23.9 96 +34 +35 очень
душно
1014.1 1013.7 12
18 25.06 СЗ 2 19 км в посл. час морось 9/5 600 м
[Sc diur, vesp Ac trans]
+28.3 +25.3 84 +41 +47 опасность
перегрева
1013.9 1013.5 3
21 25.06 ЮВ 3 19 км 8/5 800 м
[Sc diur, vesp Ac lent]
+32.3 +25.0 65 +46 +49 опасность
перегрева
1012.7 1012.2
00 26.06 ЮВ 2 19 км 6/3 600 м
[Sc diur, vesp Ac und]
+30.6 +25.1 73 +44 +45 опасность
перегрева
1011.8 1011.4 +23.0 +33.7
03 26.06 В 2 10 км 6/3 800 м
[Sc diur, vesp Ac und]
+27.8 +25.4 87 +41 +41 опасность
перегрева
1013.2 1012.7

 

Местоположение метеостанции Acapulco (Мексика): широта 16.83 долгота -99.93 высота над уровнем моря 3 м.

В архиве по умолчанию представлена погода в Acapulco за последнюю неделю. Архивные данные за месяц целиком и за предыдущие месяцы, начиная с января 2011 года, Вы можете получить, выбрав интересующий диапазон дат из раскрывающегося списка и нажав кнопку "Ввод!".

Внимание! Время в таблицах - всемирное. Для получения местного времени необходимо прибавить поправку, которая в Acapulco равна -6 ч.

Смотрите также архив погоды в соседних городах и на ближайших метеорологических станциях:

Погода в Chilpancingo (Мексика) (92 км)
Погода в Zacatepec (Мексика) (223 км)
Погода в Cuernavaca (Мексика) (240 км)
Погода в Huajuapan De Leon (Мексика) (253 км)
Погода в Toluca (Мексика) (274 км)
Погода в Geografia Unam (Мексика) (288 км)
Погода в Mexico City (Мексика) (297 км)
Погода в Puebla (Мексика) (310 км)
Погода в Tlaxcala Airport (Мексика) (329 км)
Погода в Tlaxcala (Мексика) (329 км)

Пояснения к столбцам:

Ветер - указаны скорость ветра в м/с - средняя за 10 мин, порывы в срок и между сроками (в фигурных скобках) и направление, откуда дует ветер: С - северный, СВ - северо-восточный, В - восточный, ЮВ - юго-восточный, Ю - южный, ЮЗ - юго-западный, З - западный, СЗ - северо-западный.
Видимость - горизонтальная дальность видимости в метрах или километрах. При видимости от 1 до 10 км при отсутствии осадков обычно наблюдается дымка, при ухудшении видимости до 1 км и менее - туман. В сухую погоду видимость может ухудшаться дымом, пылью или мглою.
Явления - указаны атмосферные явления, наблюдавшиеся в срок или в последний час перед сроком; фигурными скобками обозначены явления, наблюдавшиеся между сроками (за 1-3 часа до срока); квадратными скобками обозначены град или гололедные отложения с указанием их диаметра в мм.
Облачность - указаны через наклонную черту общая и нижняя облачность в баллах и высота нижней границы облаков в метрах; квадратными скобками обозначены формы облаков: Ci - перистые, Cs - перисто-слоистые, Cc - перисто-кучевые, Ac - высококучевые, As - высокослоистые, Sc - слоисто-кучевые, Ns - слоисто-дождевые, Cu - кучевые, Cb - кучево-дождевые. Подробнее классификацию облаков см. в Атласе облаков (PDF).
T - Температура воздуха - температура, измеренная на высоте 2 м над землей.
Td - Температура точки росы - температура, при понижении до которой содержащийся в воздухе водяной пар достигнет насыщения.
f - Относительная влажность воздуха - влажноcть воздуха, измеренная на высоте 2 м над землей.
Te - Эффективная температура - температура, которую ощущает одетый по сезону человек в тени. Характеристика душности погоды. При расчете учитывается влияние влажности воздуха и скорости ветра на теплоощущения человека.
Tes - Эффективная температура на солнце - температура, которую ощущает человек, с поправкой на солнечный нагрев. Характеристика знойности погоды. Зависит от высоты солнца над горизонтом, облачности и скорости ветра. Ночью, в пасмурную погоду, а также при ветре 12 м/с и более поправка равна нулю.
P - Атмосферное давление - приведенное к уровню моря атмосферное давление.
Po - Атмосферное давление - измеренное на уровне метеостанции атмосферное давление.
Tmin - Минимальная температура - минимум температуры воздуха на высоте 2 м над землей.
Tmax - Максимальная температура - максимум температуры воздуха на высоте 2 м над землей.
R - Количество осадков - Количество выпавших осадков за период времени, мм. При наведении курсора мыши на число - период времени, за который выпало указанное количество осадков.
R24 - Количество осадков - Количество выпавших осадков за 24 часа, мм.
S - Снежный покров - Высота снежного покрова, см. При наведении курсора мыши на число - состояние снежного покрова и степень покрытия местности в баллах.